Location: Little Elm
(33.1626°N, 96.9375°W)
Time: 05:26:05
(UTC+00:00)

H-2A R/B - Pass Details

Date: 29 June 2022
Orbit: 491 x 536 km, 97.3° (Epoch: 01 April)

Event Time Altitude Azimuth Distance (km) Brightness Sun altitude
Rises 10:33:28 0° 24° (NNE) 2,600 7.4 -9.4°
Reaches altitude 10° 10:35:46 10° 37° (NE) 1,719 6.7 -9.0°
Maximum altitude 10:38:59 28° 97° (E) 976 4.7 -8.4°
Drops below altitude 10° 10:42:14 10° 158° (SSE) 1,727 5.2 -7.9°
Sets 10:44:32 0° 170° (S) 2,616 6.0 -7.5°
